sat.trackr.live / text

‹ back to catalog

AZERSPACE 1

NORAD 39079 · 2013-006B

PAYLOAD ACTIVE UNKNOWN

§ Identity

Operator
Country
AZER
Launch date
2013-02-07
Launch site
FRGUI
Launch vehicle
Mass (kg)
RCS (m²)
50.12

Purposes: comms

External: N2YO · Heavens-Above · Gunter

§ Orbital elements

Epoch: 2026-05-25T03:57:46.000800Z

Period
1,436.09 min
Inclination
0.0277°
Eccentricity
0.0001167
Mean motion
1.00272503 rev/d
Perigee alt
35,781.5 km
Apogee alt
35,791.3 km
Semi-major
42,164.5 km
B*
0.0000e+0
RAAN
65.3803°
Arg perigee
18.5708°
Mean anomaly
264.2313°
Rev number
4,857

§ Raw data

AZERSPACE 11 39079U 13006B   26145.16511575  .00000131  00000+0  00000+0 0  99902 39079   0.0277  65.3803 0001167  18.5708 264.2313  1.00272503 48570

JSON: /api/v1/satellites/39079 · /tle

For live sub-satellite position, see the globe view (requires WebGL).

§ Visibility from observer

Set your observer location to see the next 7 days of passes ≥ 10°. The values pass through the URL so the page stays shareable.

No JS? Fill the form by hand. The geolocation button needs JavaScript.